TimeCDT,TemperatureF,Dew PointF,Humidity,Sea Level PressureIn,VisibilityMPH,Wind Direction,Wind SpeedMPH,Gust SpeedMPH,PrecipitationIn,Events,Conditions,WindDirDegrees,DateUTC
12:17 AM,30.2,28.4,93,29.80,1.8,NNE,19.6,33.4,0.00,Snow,Light Snow,20,2013-03-10 06:17:00
12:37 AM,30.2,28.4,93,29.78,0.8,North,31.1,36.8,0.00,Snow,Light Snow,10,2013-03-10 06:37:00
12:53 AM,30.0,28.0,92,29.76,0.5,North,31.1,41.4,0.01,Fog-Snow,Snow,350,2013-03-10 06:53:00
1:53 AM,28.9,28.0,96,29.77,0.2,North,27.6,39.1,0.03,Fog,Light Freezing Fog,360,2013-03-10 07:53:00
3:48 AM,30.2,28.4,93,29.79,1.0,North,27.6,36.8,0.01,Snow,Light Snow,360,2013-03-10 08:48:00
3:53 AM,30.0,28.0,92,29.81,1.0,North,29.9,36.8,0.01,Snow,Light Snow,360,2013-03-10 08:53:00
4:00 AM,30.2,28.4,93,29.79,1.0,North,28.8,39.1,0.00,Snow,Light Snow,360,2013-03-10 09:00:00
4:11 AM,30.2,28.4,93,29.79,0.8,North,31.1,46.0,0.00,Snow,Light Snow,360,2013-03-10 09:11:00
4:53 AM,28.9,27.0,92,29.84,0.2,North,42.6,51.8,0.01,Fog,Light Freezing Fog,360,2013-03-10 09:53:00
5:04 AM,28.4,26.6,93,29.80,0.2,North,38.0,54.1,0.01,Fog,Light Freezing Fog,360,2013-03-10 10:04:00
5:53 AM,26.1,24.1,92,29.89,0.5,North,33.4,46.0,0.02,Fog,Light Freezing Fog,350,2013-03-10 10:53:00
6:23 AM,26.6,23.0,86,29.86,1.8,North,29.9,36.8,N/A,,Overcast,350,2013-03-10 11:23:00
6:53 AM,26.6,23.0,86,29.87,3.0,North,23.0,39.1,N/A,,Overcast,350,2013-03-10 11:53:00
7:05 AM,26.6,21.2,80,29.88,1.8,North,34.5,42.6,N/A,,Overcast,350,2013-03-10 12:05:00
7:53 AM,24.1,19.9,84,29.96,1.2,NNW,31.1,41.4,0.00,Snow,Light Snow,340,2013-03-10 12:53:00
8:04 AM,23.0,19.4,86,29.90,0.5,NNW,33.4,40.3,0.00,Fog-Snow,Snow,340,2013-03-10 13:04:00
8:53 AM,21.9,18.0,85,29.97,0.5,North,33.4,42.6,0.00,Fog-Snow,Light Snow,350,2013-03-10 13:53:00
9:53 AM,21.0,18.0,88,30.00,0.5,NNW,33.4,40.3,0.01,Fog-Snow,Snow,340,2013-03-10 14:53:00
10:25 AM,21.2,17.6,86,29.94,0.2,NNW,34.5,42.6,0.00,Fog-Snow,Snow,340,2013-03-10 15:25:00
10:53 AM,21.0,18.0,88,30.01,0.2,NNW,32.2,42.6,0.01,Fog-Snow,Heavy Snow,340,2013-03-10 15:53:00
11:14 AM,19.4,17.6,93,29.95,0.2,NNW,36.8,46.0,0.00,Fog-Snow,Heavy Snow,340,2013-03-10 16:14:00
11:53 AM,19.9,17.1,89,30.04,0.2,NNW,33.4,43.7,0.01,Fog-Snow,Heavy Snow,340,2013-03-10 16:53:00
12:21 PM,19.4,17.6,93,29.97,0.5,North,33.4,42.6,0.01,Fog-Snow,Snow,350,2013-03-10 17:21:00
12:50 PM,19.4,17.6,93,29.98,0.5,North,29.9,40.3,0.01,Fog,Light Freezing Fog,350,2013-03-10 17:50:00
12:53 PM,19.9,17.1,89,30.06,0.2,NNW,29.9,40.3,0.01,Fog-Snow,Heavy Snow,340,2013-03-10 17:53:00
1:06 PM,21.2,17.6,86,29.98,0.5,NNW,27.6,36.8,0.00,Fog-Snow,Snow,340,2013-03-10 18:06:00
1:53 PM,21.9,18.0,85,30.05,0.5,NNW,31.1,40.3,0.00,Fog-Snow,Snow,340,2013-03-10 18:53:00
2:53 PM,23.0,19.0,85,30.04,0.2,North,31.1,40.3,0.00,Fog-Snow,Heavy Snow,350,2013-03-10 19:53:00
3:53 PM,23.0,19.0,85,30.04,0.5,NNW,28.8,36.8,0.01,Fog-Snow,Snow,340,2013-03-10 20:53:00
4:46 PM,24.8,19.4,80,29.97,0.5,NNW,31.1,43.7,0.00,Snow,Snow,340,2013-03-10 21:46:00
4:53 PM,24.1,19.0,81,30.04,1.0,NNW,27.6,38.0,0.00,Snow,Light Snow,330,2013-03-10 21:53:00
5:33 PM,24.8,17.6,74,29.97,2.5,NNW,27.6,41.4,0.00,Snow,Blowing Snow,340,2013-03-10 22:33:00
5:53 PM,24.1,19.0,81,30.04,1.8,NNW,27.6,36.8,0.00,Snow,Blowing Snow,340,2013-03-10 22:53:00
6:09 PM,24.8,17.6,74,29.97,3.0,NNW,24.2,35.7,N/A,Snow,Blowing Snow,340,2013-03-10 23:09:00
6:22 PM,24.8,17.6,74,29.96,1.8,NNW,28.8,36.8,N/A,Snow,Blowing Snow,340,2013-03-10 23:22:00
6:28 PM,24.8,17.6,74,29.97,3.0,NNW,25.3,33.4,N/A,Snow,Blowing Snow,330,2013-03-10 23:28:00
6:40 PM,24.8,17.6,74,29.97,2.5,NNW,25.3,33.4,N/A,Snow,Blowing Snow,330,2013-03-10 23:40:00
6:53 PM,24.1,18.0,77,30.04,2.5,NNW,28.8,36.8,N/A,Snow,Blowing Snow,340,2013-03-10 23:53:00
7:09 PM,24.8,17.6,74,29.97,3.0,NNW,28.8,36.8,N/A,Snow,Blowing Snow,340,2013-03-11 00:09:00
7:53 PM,24.1,17.1,75,30.06,6.0,NNW,20.7,36.8,N/A,Snow,Blowing Snow,340,2013-03-11 00:53:00
8:53 PM,23.0,17.1,78,30.07,9.0,NNW,24.2,29.9,0.00,,Mostly Cloudy,330,2013-03-11 01:53:00
9:53 PM,23.0,16.0,74,30.06,6.0,NNW,26.5,34.5,0.00,,Overcast,340,2013-03-11 02:53:00
10:53 PM,21.9,16.0,78,30.07,10.0,NNW,23.0,-,0.00,,Mostly Cloudy,340,2013-03-11 03:53:00
11:53 PM,19.9,15.1,81,30.07,10.0,NNW,23.0,-,N/A,,Clear,340,2013-03-11 04:53:00
12:53 AM,19.0,12.9,77,30.06,10.0,North,18.4,24.2,N/A,,Clear,350,2013-03-11 05:53:00